Location: Boiro
(42.6475°N, 8.8834°W)
Time: 03:14:42
(UTC+01:00)

Vanguard 3 - Pass Details

Date: 09 December 2021
Orbit: 508 x 3260 km, 33.3° (Epoch: 19 January)

Event Time Altitude Azimuth Distance (km) Brightness Sun altitude
Exits shadow 05:45:55 41° 237° (WSW) 4,172 10.2 -33.7°
Maximum altitude 05:54:35 63° 177° (S) 3,437 10.1 -32.1°
Drops below altitude 10° 06:11:15 10° 102° (ESE) 5,247 12.2 -29.0°
Sets 06:14:44 0° 99° (E) 5,965 12.8 -28.4°
